When you browse on this site, cookies collect data to enhance your experience and personalize the content and advertising you see.
Visit our Privacy Policy to learn more. By continuing to use the site, you agree to this use of cookies and data.

Hourly Weather Zastav'je

Today, 7 August, Friday

Time Temperature Precipitation Wind Pressure Humidity
00:00 +21°C° 0 mm 2 mps 746 mmHg 79%
01:00 +21°C° 0 mm 2 mps 747 mmHg 82%
02:00 +20°C° 0 mm 2 mps 747 mmHg 85%
03:00 +20°C° 0 mm 2 mps 747 mmHg 87%
04:00 +19°C° 0 mm 2 mps 747 mmHg 89%
05:00 +19°C° 0 mm 2 mps 746 mmHg 91%
06:00 +20°C° 0 mm 2 mps 747 mmHg 87%
07:00 +23°C° 0 mm 2 mps 747 mmHg 83%
08:00 +24°C° 0 mm 2 mps 747 mmHg 79%
09:00 +26°C° 0 mm 2 mps 747 mmHg 72%
10:00 +27°C° 0 mm 3 mps 747 mmHg 66%
11:00 +29°C° 0 mm 3 mps 747 mmHg 60%
12:00 +29°C° 0 mm 3 mps 747 mmHg 58%
13:00 +30°C° 0 mm 3 mps 747 mmHg 57%
14:00 +30°C° 0 mm 3 mps 747 mmHg 55%
15:00 +30°C° 0.1 mm 3 mps 747 mmHg 58%
16:00 +30°C° 0.1 mm 3 mps 746 mmHg 61%
17:00 +29°C° 0.1 mm 3 mps 746 mmHg 63%
18:00 +27°C° 0.1 mm 3 mps 746 mmHg 70%
19:00 +26°C° 0.1 mm 3 mps 746 mmHg 76%
20:00 +24°C° 0.1 mm 3 mps 746 mmHg 82%
21:00 +22°C° 0 mm 3 mps 746 mmHg 85%
22:00 +21°C° 0 mm 2 mps 746 mmHg 88%
23:00 +21°C° 0 mm 2 mps 746 mmHg 90%

Tomorrow, 8 August, Saturday

Time Temperature Precipitation Wind Pressure Humidity
00:00 +20°C° 0 mm 2 mps 746 mmHg 92%
01:00 +20°C° 0 mm 2 mps 746 mmHg 93%
02:00 +20°C° 0 mm 2 mps 746 mmHg 94%
03:00 +19°C° 0 mm 2 mps 746 mmHg 94%
04:00 +19°C° 0 mm 2 mps 746 mmHg 95%
05:00 +19°C° 0 mm 2 mps 746 mmHg 95%
06:00 +20°C° 0 mm 2 mps 746 mmHg 92%
07:00 +21°C° 0 mm 3 mps 746 mmHg 88%
08:00 +22°C° 0 mm 3 mps 746 mmHg 85%
09:00 +25°C° 0.4 mm 3 mps 746 mmHg 80%
10:00 +26°C° 0.4 mm 3 mps 746 mmHg 75%
11:00 +27°C° 0.4 mm 4 mps 746 mmHg 71%
12:00 +27°C° 0.3 mm 4 mps 746 mmHg 68%
13:00 +28°C° 0.3 mm 4 mps 746 mmHg 66%
14:00 +28°C° 0.3 mm 4 mps 745 mmHg 63%
15:00 +28°C° 0.1 mm 4 mps 745 mmHg 64%
16:00 +28°C° 0.1 mm 3 mps 745 mmHg 64%
17:00 +28°C° 0.1 mm 3 mps 745 mmHg 65%
18:00 +26°C° 0 mm 3 mps 745 mmHg 70%
19:00 +24°C° 0 mm 3 mps 745 mmHg 76%
20:00 +23°C° 0 mm 2 mps 745 mmHg 81%
21:00 +21°C° 0 mm 2 mps 745 mmHg 83%
22:00 +20°C° 0 mm 2 mps 745 mmHg 84%
23:00 +20°C° 0 mm 2 mps 745 mmHg 85%

Day after tomorrow, 9 August, Sunday

Time Temperature Precipitation Wind Pressure Humidity
00:00 +19°C° 0 mm 2 mps 745 mmHg 86%
01:00 +20°C° 0 mm 1 mps 745 mmHg 87%
02:00 +20°C° 0 mm 1 mps 745 mmHg 88%
03:00 +19°C° 0 mm 1 mps 744 mmHg 89%
04:00 +19°C° 0 mm 1 mps 744 mmHg 90%
05:00 +19°C° 0 mm 1 mps 744 mmHg 90%
06:00 +20°C° 0 mm 1 mps 744 mmHg 86%
07:00 +22°C° 0 mm 1 mps 744 mmHg 81%
08:00 +23°C° 0 mm 1 mps 744 mmHg 77%
09:00 +24°C° 0.1 mm 1 mps 744 mmHg 73%
10:00 +26°C° 0.1 mm 2 mps 744 mmHg 69%
11:00 +27°C° 0.1 mm 2 mps 744 mmHg 65%
12:00 +27°C° 0.3 mm 2 mps 744 mmHg 63%
13:00 +28°C° 0.3 mm 2 mps 744 mmHg 62%
14:00 +28°C° 0.3 mm 2 mps 743 mmHg 61%
15:00 +28°C° 1 mm 2 mps 743 mmHg 64%
16:00 +27°C° 1 mm 2 mps 743 mmHg 68%
17:00 +27°C° 1 mm 3 mps 743 mmHg 72%
18:00 +25°C° 0.2 mm 2 mps 743 mmHg 76%
19:00 +24°C° 0.2 mm 2 mps 743 mmHg 80%
20:00 +21°C° 0.2 mm 2 mps 743 mmHg 84%
21:00 +21°C° 0 mm 2 mps 743 mmHg 85%
22:00 +21°C° 0 mm 1 mps 743 mmHg 86%
23:00 +21°C° 0 mm 1 mps 743 mmHg 87%

10 August, Monday

Time Temperature Precipitation Wind Pressure Humidity
00:00 +20°C° 0 mm 1 mps 743 mmHg 88%
01:00 +20°C° 0 mm 1 mps 743 mmHg 88%
02:00 +19°C° 0 mm 1 mps 742 mmHg 89%
03:00 +19°C° 0 mm 1 mps 742 mmHg 89%
04:00 +17°C° 0 mm 0 mps 742 mmHg 89%
05:00 +17°C° 0 mm 0 mps 743 mmHg 90%
06:00 +18°C° 0 mm 0 mps 743 mmHg 86%
07:00 +21°C° 0 mm 1 mps 743 mmHg 82%
08:00 +23°C° 0 mm 1 mps 743 mmHg 78%
09:00 +24°C° 0.2 mm 1 mps 743 mmHg 74%
10:00 +25°C° 0.2 mm 1 mps 743 mmHg 69%
11:00 +26°C° 0.2 mm 1 mps 743 mmHg 64%
12:00 +27°C° 0.1 mm 1 mps 743 mmHg 61%
13:00 +28°C° 0.1 mm 1 mps 743 mmHg 58%
14:00 +28°C° 0.1 mm 1 mps 742 mmHg 55%
15:00 +28°C° 0.2 mm 2 mps 742 mmHg 58%
16:00 +28°C° 0.2 mm 2 mps 742 mmHg 60%
17:00 +28°C° 0.2 mm 2 mps 742 mmHg 62%
18:00 +26°C° 0 mm 2 mps 742 mmHg 68%
19:00 +24°C° 0 mm 2 mps 742 mmHg 74%
20:00 +22°C° 0 mm 1 mps 742 mmHg 80%
21:00 +22°C° 0 mm 1 mps 742 mmHg 82%
22:00 +21°C° 0 mm 1 mps 742 mmHg 83%
23:00 +18°C° 0 mm 0 mps 742 mmHg 85%

11 August, Tuesday

Time Temperature Precipitation Wind Pressure Humidity
00:00 +18°C° 0 mm 0 mps 742 mmHg 85%
01:00 +18°C° 0 mm 0 mps 742 mmHg 86%
02:00 +17°C° 0 mm 0 mps 742 mmHg 87%
03:00 +17°C° 0 mm 0 mps 742 mmHg 87%
04:00 +17°C° 0 mm 0 mps 742 mmHg 88%
05:00 +17°C° 0 mm 0 mps 742 mmHg 88%
06:00 +18°C° 0 mm 0 mps 742 mmHg 85%
07:00 +20°C° 0 mm 0 mps 742 mmHg 81%
08:00 +23°C° 0 mm 1 mps 742 mmHg 77%
09:00 +24°C° 0.1 mm 1 mps 742 mmHg 73%
10:00 +26°C° 0.1 mm 1 mps 742 mmHg 68%
11:00 +27°C° 0.1 mm 1 mps 742 mmHg 64%
12:00 +27°C° 0 mm 1 mps 742 mmHg 61%
13:00 +28°C° 0 mm 1 mps 742 mmHg 58%
14:00 +28°C° 0 mm 2 mps 741 mmHg 55%
15:00 +28°C° 0 mm 2 mps 741 mmHg 57%
16:00 +28°C° 0 mm 2 mps 741 mmHg 59%
17:00 +28°C° 0 mm 2 mps 741 mmHg 61%
18:00 +26°C° 0 mm 2 mps 741 mmHg 67%
19:00 +24°C° 0 mm 2 mps 741 mmHg 73%
20:00 +23°C° 0 mm 1 mps 741 mmHg 79%
21:00 +22°C° 0.3 mm 1 mps 741 mmHg 82%
22:00 +21°C° 0.3 mm 1 mps 741 mmHg 84%
23:00 +21°C° 0.3 mm 1 mps 741 mmHg 87%

12 August, Wednesday

Time Temperature Precipitation Wind Pressure Humidity
00:00 +20°C° 0.5 mm 1 mps 741 mmHg 89%
01:00 +20°C° 0.5 mm 1 mps 741 mmHg 90%
02:00 +19°C° 0.5 mm 1 mps 741 mmHg 92%
03:00 +19°C° 0 mm 1 mps 741 mmHg 93%
04:00 +17°C° 0 mm 2 mps 741 mmHg 95%
05:00 +17°C° 0 mm 2 mps 741 mmHg 96%
06:00 +18°C° 0 mm 2 mps 741 mmHg 95%
07:00 +18°C° 0 mm 3 mps 741 mmHg 94%
08:00 +19°C° 0 mm 3 mps 742 mmHg 92%
09:00 +19°C° 0 mm 4 mps 742 mmHg 89%
10:00 +20°C° 0 mm 4 mps 742 mmHg 86%
11:00 +20°C° 0 mm 4 mps 742 mmHg 83%
12:00 +21°C° 0 mm 4 mps 742 mmHg 78%
13:00 +22°C° 0 mm 4 mps 742 mmHg 72%
14:00 +23°C° 0 mm 4 mps 742 mmHg 67%
15:00 +23°C° 0 mm 4 mps 742 mmHg 66%
16:00 +22°C° 0 mm 4 mps 742 mmHg 65%
17:00 +22°C° 0 mm 4 mps 742 mmHg 64%
18:00 +21°C° 0 mm 4 mps 742 mmHg 70%
19:00 +19°C° 0 mm 3 mps 742 mmHg 76%
20:00 +17°C° 0 mm 3 mps 742 mmHg 82%
21:00 +16°C° 0 mm 2 mps 742 mmHg 84%
22:00 +16°C° 0 mm 2 mps 743 mmHg 87%
23:00 +15°C° 0 mm 2 mps 743 mmHg 89%
Show more